Location: Boston
(42.3580°N, 71.0600°W)
Time: 00:08:05
(UTC-04:00)

OTV 5 (USA 277) - Pass Details

Date: 11 October 2017
Orbit: 404 x 417 km, 43.0° (Epoch: 07 September)

Event Time Altitude Azimuth Distance (km) Brightness Sun altitude
Rises 20:29:44 0° 261° (W) 2,352 ? -26.8°
Reaches altitude 10° 20:31:50 10° 262° (W) 1,489 ? -27.1°
Enters shadow 20:33:03 21° 263° (W) 1,006 ? -27.3°
